Location: Rounton
(54.4000°N, 1.3500°W)
Time: 14:14:04
(UTC+00:00)

Transit 2A Rocket - Pass Details

Date: 03 December 2021
Orbit: 584 x 918 km, 66.7° (Epoch: 17 January)

Event Time Altitude Azimuth Distance (km) Brightness Sun altitude
Rises 08:46:01 0° 220° (SW) 3,368 8.4 3.4°
Reaches altitude 10° 08:48:24 10° 221° (SW) 2,479 7.8 3.6°
Maximum altitude 08:54:13 88° 309° (NW) 901 5.5 4.2°
Drops below altitude 10° 09:00:23 10° 42° (NE) 2,618 7.7 4.8°
Sets 09:02:57 0° 43° (NE) 3,568 8.4 5.0°
